Regional Weather Roundup
Issued by NWS

Home | Current Version | Previous Version | Text Only | Print | Product List | Glossary On
Versions: 1 2 3 4 5 6 7 8 9 10 11 12 13 14 15 16 17 18 19 20 21 22 23 24 25 26 27 28 29 30 31 32 33 34 35 36 37 38 39 40 41 42 43 44 45 46 47 48 49 50
000
ASUS45 KBOU 022010
RWRCO

WEATHER ROUNDUP FOR COLORADO
NATIONAL WEATHER SERVICE DENVER/BOULDER CO
200 PM MDT SUN AUG 02 2015

NOTE: "FAIR" INDICATES FEW OR NO CLOUDS BELOW 12000 FEET WITH NO
SIGNIFICANT WEATHER AND/OR OBSTRUCTIONS TO VISIBILITY.

COZ001>005-013-030-031-022100-
...NORTHWEST COLORADO...

CITY           SKY/WX    TMP DP  RH WIND       PRES   REMARKS
CRAIG          PTSUNNY   89  44  20 N7        30.13F
HAYDEN         PTSUNNY   82  37  20 NW5       30.17F
MEEKER         PTSUNNY   82  49  31 S13       30.17F
MOUNT WERNER   NOT AVBL
STEAMBOAT SPGS PTSUNNY   82  43  25 CALM      30.18F
WALDEN         MOSUNNY   79  23  12 SW6       30.28F
$$

COZ006>008-011-022100-
...WEST CENTRAL VALLEYS...

CITY           SKY/WX    TMP DP  RH WIND       PRES   REMARKS
GRAND JUNCTION CLOUDY    75  57  53 S10       30.11F
MONTROSE       CLOUDY    71  56  58 E3        30.20F
EAGLE          CLOUDY    82  43  24 W8        30.18F
RIFLE          CLOUDY    81  49  32 W12       30.13F
DELTA          CLOUDY    76  56  48 SE6       30.16F
NUCLA          CLOUDY    66  59  77 NW3       30.24F
$$

COZ017>023-064>068-022100-
...SOUTHWEST COLORADO...

CITY           SKY/WX    TMP DP  RH WIND       PRES   REMARKS
DURANGO        PTSUNNY   79  50  36 VRB7      30.20F
CORTEZ         SUNNY     74  59  59 VRB5      30.16F
PAGOSA SPRINGS PTSUNNY   75  46  35 SW5       30.28F
TELLURIDE      RAIN      58  54  86 CALM      30.41S
WOLF CREEK PAS NOT AVBL
$$

COZ009-010-012-014-032>034-037-058>063-022100-
...CENTRAL COLORADO...

CITY           SKY/WX    TMP DP  RH WIND       PRES   REMARKS
ASPEN          CLOUDY    76  45  33 VRB5      30.27F
BUENA VISTA    CLOUDY    74  36  25 SE12      30.28S
COPPER MTN     CLOUDY    61  36  39 E8        30.63R
BERTHOUD PASS  CLOUDY    45  34  65 SE24G35   30.69R
COTTONWOOD PAS CLOUDY    68  41  37 E14G24    30.44S
GUNNISON       CLOUDY    70  48  46 SW6       30.31F
KREMMLING      PTSUNNY   82  12   7 CALM      30.22F
LEADVILLE      LGT RAIN  60  41  49 NE7       30.43S
MONARCH PASS   CLOUDY    55  37  50 E12       30.72R
SALIDA         CLOUDY    81  38  22 SE7       30.31F
SUNLIGHT       CLOUDY    61  46  59 CALM      30.55S
WILKERSON PASS CLOUDY    50  43  76 S12G23    30.61R
$$

COZ069>075-022100-
...SAN LUIS VALLEY/SANGRE DE CRISTO MOUNTAINS...

CITY           SKY/WX    TMP DP  RH WIND       PRES   REMARKS
ALAMOSA        PTSUNNY   76  45  33 MISG      30.25F
LA VETA PASS   CLOUDY    61  43  51 MISG      30.47F THUNDER
SAGUACHE       CLOUDY    75  50  41 SE9       30.29F
$$

COZ035-036-038>040-022100-
...NORTHERN COLORADO FRONT RANGE...

CITY           SKY/WX    TMP DP  RH WIND       PRES   REMARKS
DENVER INTL AP PTSUNNY   89  37  16 E13G22    30.08R
DMNS CITY PARK   N/A     87  41  19 NE6       30.06S
AURORA         PTSUNNY   89  42  19 SE6       30.10R
FRONT RANGE AP PTSUNNY   91  36  14 MISG        N/A
ERIE MUNI ARPT PTSUNNY   91  40  16 CALM      30.06S
BOULDER MUN AP PTSUNNY   90  46  22 N3        30.07S
CENTENNIAL     PTSUNNY   87  39  18 E9        30.11S
BROOMFIELD     CLOUDY    90  39  17 S6          N/A
FORT COLLINS   PTSUNNY   86  54  32 N10       30.06R
LONGMONT       PTSUNNY   89  52  27 N7        30.08R
$$

COZ041-046-047-076>085-087-088-022100-
...PIKES PEAK/PALMER DIVIDE AND SOUTHERN FOOTHILLS...

CITY           SKY/WX    TMP DP  RH WIND       PRES   REMARKS
COLO. SPRINGS  PTSUNNY   83  43  24 SE7       30.17F
A. F. ACADEMY  PTSUNNY   84  43  23 SE15      30.18F
ELLICOTT       PTSUNNY  N/A N/A N/A S6G17     30.16F
FALCON         PTSUNNY   80  46  30 SE10      30.24S
FORT CARSON    PTSUNNY   84  48  27 SE10      30.14F
LIMON          SUNNY     89  43  20 SE8G17    30.11F
MONUMENT HILL  NOT AVBL
TRINIDAD       PTSUNNY   87  48  25 E8        30.11F
$$

COZ042>045-048>051-090-091-022100-
...NORTHEAST COLORADO...

CITY           SKY/WX    TMP DP  RH WIND       PRES   REMARKS
GREELEY ARPT   MOSUNNY   91  52  25 CALM      30.04F
AKRON          SUNNY     91  48  22 SE16      30.05F
BURLINGTON     SUNNY     92  45  19 E8        30.03S
WRAY           SUNNY     98  46  16 SE8       29.98S
STERLING       SUNNY     95  50  21 S12       29.98S
HOLYOKE        SUNNY     99  39  12 SE7       29.97F
FORT MORGAN    SUNNY     95  42  16 S9G16     30.02F
$$

COZ086-089-092>099-022100-
...SOUTHEAST COLORADO...

CITY           SKY/WX    TMP DP  RH WIND       PRES   REMARKS
PUEBLO         PTSUNNY   93  49  22 MISG      30.03F
LA JUNTA       MOSUNNY   95  44  17 E9        30.01F
LAMAR          MOSUNNY   95  55  26 E12G18    29.96F
SPRINGFIELD      N/A     94  52  24 NE9G16    30.02S
$$



USA.gov is the U.S. government's official web portal to all federal, state and local government web resources and services.